49P/Arend-Rigaux (2018)

Japanese version
Home page
Updated on August 15, 2020

---------------------------------------------------------------------

* Profile

* Pictures

* Orbital Elements

Epoch 2018 July 21.0 TT = JDT 2458320.5
T 2018 July 15.49797 TT                                 Rudenko
q   1.4296056            (2000.0)            P               Q
n   0.14618284     Peri.  332.88787     -0.05172985     -0.95687533
a   3.5689335      Node   118.82432     +0.96518837     -0.12139110
e   0.5994306      Incl.   19.04323     +0.25638921     +0.26392007
P   6.74
From 3418 observations 1963 Oct. 18-2020 July 20, mean residual 0".6.
     Nongravitational parameters A1 = +0.02, A2 = -0.0005.

* Finding Charts

* Magnitudes Graph

        H = 13.5  G = 0.15                       [   , -80]  (             - 2018 Apr. 26)
        m1 = 8.0 + 5 log d + 30.0 log r(t - 10)  [-80, 117]  (2018 Apr. 26 - 2018 Nov.  9)
        H = 13.5  G = 0.15                       [117,    ]  (2018 Nov.  9 -             )

---------------------------------------------------------------------

The orbital elements are published on M.P.E.C. 2020-P19.
The charts are made with StellaNavigator Ver.8 (AstroArts).
The magnitudes graphs are made with Comet for Windows.

---------------------------------------------------------------------

Copyright(C) Seiichi Yoshida (comet@aerith.net). All rights reserved.